Flag for Denmark Weather past 2 weeks in Copenhagen, Denmark

Now
68 °F

Sunny.


Feels Like: 68 °F
Forecast: 52 / 68 °F
Wind: 15 mph from Northwest

Location: Koebenhavn-Kastrup Airport

Current Time: Aug 27, 2014 at 6:05:09 PM

Latest Report: Aug 27, 2014 at 5:20 PM


Visibility: 10 mi

Pressure: 29.92 "Hg

Humidity: 40%

Dew point: 43 °F

Location of CopenhagenLocation

Historic Weather in Copenhagen — Graph

°F

Copenhagen temperature yesterday

Maximum temperature yesterday: 64 °F (at 3:50 PM)
Minimum temperature yesterday: 50 °F (at 2:20 AM)
Average temperature yesterday: 57 °F

Past Weeks' High & Low Weather Summary

 TemperatureHumidityPressure
High73 °F (Aug 14, 2:20 PM)100% (Aug 17, 8:50 AM)29.92 "Hg (Aug 17, 8:50 AM)
Low50 °F (Aug 26, 2:20 AM)40% (Aug 27, 4:20 PM)29.36 "Hg (Aug 18, 2:20 PM)
Average59 °F74%29.72 "Hg
* Reported Aug 12 4:20 PM — Aug 27 4:20 PM, Copenhagen, Weather by CustomWeather, © 2014

Note: Actual official high and low records may vary slightly from our data, if they occured in-between our weather recording intervals... More about our weather records

Advertising

Copenhagen weather history for previous 24 hours

 ConditionsComfort  
Time TempWeatherWind HumidityBarometerVisibility
4:20 PM
Aug 27
70 °FPassing clouds.14 mph40%29.92 "HgN/A
3:50 PM70 °FPassing clouds.12 mph46%29.92 "HgN/A
3:20 PM70 °FPassing clouds.13 mph46%29.92 "HgN/A
2:50 PM68 °FPassing clouds.12 mph49%29.92 "HgN/A
2:20 PM70 °FPassing clouds.12 mph50%29.92 "HgN/A
1:50 PM70 °FPassing clouds.13 mph46%29.92 "HgN/A
1:20 PM68 °FPassing clouds.10 mph49%29.92 "HgN/A
12:20 PM66 °FPassing clouds.13 mph56%29.92 "HgN/A
11:50 AM68 °FPassing clouds.14 mph56%29.92 "HgN/A
11:20 AM66 °FPassing clouds.14 mph64%29.89 "HgN/A
10:50 AM64 °FPassing clouds.13 mph68%29.89 "HgN/A
10:20 AM66 °FPassing clouds.10 mph68%29.89 "HgN/A
9:50 AM63 °FPassing clouds.12 mph77%29.89 "HgN/A
9:20 AM63 °FPassing clouds.12 mph83%29.89 "HgN/A
8:50 AM61 °FSunny.10 mph88%29.89 "Hg10 mi
8:20 AM59 °FSunny.8 mph88%29.86 "Hg10 mi
7:50 AM57 °FSunny.8 mph88%29.86 "Hg10 mi
7:20 AM55 °FSunny.9 mph94%29.86 "Hg10 mi
6:50 AM55 °FClear.7 mph88%29.86 "Hg10 mi
6:20 AM55 °FPassing clouds.8 mph94%29.86 "HgN/A
5:50 AM54 °FPassing clouds.7 mph94%29.86 "HgN/A
5:20 AM54 °FPassing clouds.7 mph94%29.86 "HgN/A
4:50 AM54 °FPassing clouds.7 mph94%29.86 "HgN/A
4:20 AM54 °FPassing clouds.7 mph94%29.83 "HgN/A
3:50 AM54 °FPassing clouds.6 mph94%29.83 "HgN/A
3:20 AM54 °FPassing clouds.7 mph94%29.83 "HgN/A
2:20 AM52 °FPassing clouds.6 mph94%29.83 "HgN/A
1:50 AM54 °FPassing clouds.6 mph88%29.83 "HgN/A
1:20 AM54 °FPassing clouds.5 mph88%29.83 "HgN/A
12:50 AM55 °FPassing clouds.5 mph88%29.83 "HgN/A
12:20 AM54 °FPassing clouds.5 mph88%29.80 "HgN/A
11:50 PM
Aug 26
55 °FPassing clouds.6 mph82%29.80 "HgN/A
11:20 PM57 °FPassing clouds.6 mph77%29.80 "HgN/A
10:50 PM57 °FPassing clouds.7 mph77%29.80 "HgN/A
10:20 PM57 °FPassing clouds.6 mph82%29.80 "HgN/A
9:50 PM57 °FPassing clouds.7 mph82%29.80 "HgN/A
9:20 PM59 °FPassing clouds.8 mph77%29.80 "HgN/A
8:50 PM61 °FScattered clouds.8 mph68%29.77 "HgN/A
8:20 PM59 °FScattered clouds.9 mph72%29.77 "HgN/A
7:50 PM61 °FPassing clouds.12 mph63%29.77 "HgN/A
7:20 PM61 °FPassing clouds.16 mph68%29.77 "HgN/A
6:50 PM63 °FPassing clouds.16 mph64%29.77 "HgN/A
6:20 PM63 °FPassing clouds.16 mph59%29.74 "HgN/A
Weather by CustomWeather, © 2014

See weather overviewHow to use our weather pages